Theta_e
324 323 322 322 322 321 321 320 320 320 320 320 320 320 320 320 320 319 320 319 318 318 320 320 323 324 326 315 315 328 352 345 329 324 319 320 319 323 322 323 329 328 330 331 332 331 330
322 322 322 321 320 320 320 320 320 320 319 319 320 320 320 320 320 319 319 318 317 317 319 321 323 324 324 310 320 333 335 323 323 323 320 320 320 325 323 326 329 332 330 329 331 330 331
322 321 321 320 319 319 319 319 319 319 319 319 319 319 319 319 320 320 319 317 316 317 319 323 324 327 319 315 326 332 329 323 324 322 319 321 328 322 327 326 334 330 324 328 329 329 328
322 321 320 319 319 319 319 318 318 318 318 319 319 319 319 319 319 318 317 316 317 320 322 324 326 325 313 323 329 327 324 320 322 322 321 322 325 326 327 331 328 322 324 319 327 329 329
320 320 319 319 319 319 319 318 318 319 319 319 319 318 318 318 317 316 315 316 322 324 325 326 326 322 313 327 321 326 324 319 319 321 322 325 328 325 326 319 317 319 311 314 320 329 327
319 319 319 318 318 319 319 318 318 318 318 318 318 318 318 318 316 315 315 317 327 326 327 328 326 318 320 315 322 324 324 321 317 317 317 317 321 319 319 315 308 308 310 312 316 324 327
319 318 318 318 318 318 318 318 318 318 318 318 318 318 317 317 315 314 319 328 323 321 320 319 319 316 317 324 327 323 323 320 319 316 311 316 312 310 314 316 315 313 312 310 315 323 323
318 318 318 317 318 318 318 318 317 318 318 318 318 317 317 316 314 314 319 314 319 320 313 320 321 320 321 322 318 322 324 318 316 310 313 311 308 314 315 314 314 314 311 310 315 323 324
318 317 317 317 317 318 317 317 317 317 317 317 317 317 316 314 313 316 322 320 325 324 314 314 317 317 319 321 316 319 322 319 315 311 310 308 310 314 312 312 311 313 311 309 308 317 323
317 317 317 317 317 317 317 317 317 317 317 317 317 316 315 312 313 323 321 322 325 324 308 309 310 314 317 318 314 322 324 320 315 310 311 310 313 310 310 309 312 309 312 310 309 314 310
317 317 317 317 316 316 316 316 317 316 316 316 316 316 313 312 319 321 322 326 325 320 297 308 312 321 318 315 317 317 324 320 312 310 311 308 308 309 307 310 311 308 314 312 313 314 313
316 316 316 315 315 315 316 316 316 316 316 316 315 314 313 316 320 324 325 325 320 305 297 307 313 312 311 313 315 315 316 320 317 310 310 309 312 309 310 313 313 311 313 315 316 313 305
316 316 316 315 316 316 316 316 316 315 315 314 313 310 312 320 322 325 325 319 305 300 307 305 307 311 310 310 311 312 312 310 306 302 303 306 307 310 311 308 311 312 310 303 302 304 302
316 316 316 316 316 316 316 316 316 315 314 313 310 308 314 321 326 324 324 310 300 303 303 309 308 308 307 311 312 310 310 308 311 308 305 302 299 306 311 309 309 309 309 303 296 298 303
316 316 316 316 317 316 317 316 315 314 313 312 309 325 327 326 327 325 316 304 307 305 307 306 308 304 307 309 309 310 310 309 311 311 304 303 302 310 310 312 312 308 306 311 304 305 301
315 316 316 317 317 317 317 316 315 314 313 311 325 327 323 326 326 321 312 303 306 309 311 309 303 306 304 308 307 309 309 312 310 313 314 309 303 309 310 312 312 310 313 304 305 297 297
315 316 317 317 317 317 317 316 315 313 311 311 323 322 325 328 325 318 309 309 308 313 313 309 306 305 306 306 308 309 309 312 312 313 314 311 308 307 308 307 307 308 307 308 307 305 300
315 316 316 317 317 317 317 316 314 311 310 315 324 316 328 328 315 317 313 311 304 313 316 313 313 311 309 309 308 307 307 311 312 311 308 313 309 304 306 311 312 312 310 309 303 303 305
316 316 317 317 317 317 317 315 313 311 310 320 321 321 331 326 311 314 313 311 313 312 313 312 311 312 313 310 307 309 310 314 313 312 310 312 307 302 304 308 310 307 309 310 310 309 305
315 316 317 316 317 317 316 315 313 311 311 319 319 314 321 323 320 313 311 310 309 313 313 314 313 315 312 311 312 309 310 312 313 313 320 314 308 307 302 305 308 306 308 310 309 304 305
315 316 317 317 317 317 316 315 313 311 311 318 314 310 310 311 312 312 312 311 308 308 313 314 312 311 311 309 310 310 311 313 315 317 314 312 306 309 309 310 309 308 308 308 307 309 306
314 315 317 316 316 316 316 315 314 312 310 317 311 310 314 310 307 307 304 308 307 309 310 309 309 311 312 309 311 309 311 313 311 314 314 314 305 309 307 310 309 306 309 309 309 309 310
314 314 316 317 316 316 316 316 315 312 313 314 316 318 312 302 305 305 306 305 305 306 308 310 310 309 309 311 314 315 316 316 315 313 312 312 309 306 303 309 308 304 309 309 310 311 311
313 313 315 316 317 316 316 316 315 313 312 318 316 313 309 305 306 305 304 305 304 305 304 307 308 307 312 317 316 316 316 316 316 316 316 311 311 309 304 306 299 309 316 314 311 312 314
312 313 314 315 316 316 316 316 316 314 313 316 317 313 309 304 306 305 304 304 306 307 306 306 308 312 315 311 305 303 305 307 310 314 314 315 311 306 303 303 307 309 313 312 311 310 315
312 312 313 314 314 316 315 315 315 314 313 315 316 318 311 305 306 306 304 305 303 304 305 307 311 314 312 307 303 298 297 302 302 307 315 314 312 308 306 300 299 310 316 317 317 307 318
311 312 312 312 313 313 314 315 315 314 313 314 315 317 311 304 309 308 305 304 307 305 303 305 306 307 311 305 301 299 299 305 300 302 304 307 307 301 304 303 306 315 317 318 307 311 318
311 311 311 312 312 312 312 313 314 314 314 313 314 318 310 306 308 309 309 306 307 304 298 305 304 305 305 302 302 303 302 304 303 306 306 304 302 302 305 300 300 317 316 311 318 323 322
310 311 311 311 312 312 312 312 312 314 313 312 311 315 313 306 307 311 311 312 310 308 306 306 301 304 305 302 307 307 305 307 305 300 312 304 308 306 307 307 319 322 322 325 325 324 323
Wind_Speed
14 14 13 13 13 13 14 14 14 14 14 14 14 14 15 14 14 15 15 15 14 13 10 7 6 5 7 9 4 4 6 10 11 11 11 8 7 5 5 4 0 4 2 3 2 3 5
14 14 14 14 14 14 14 14 15 15 15 15 15 15 15 15 15 14 15 15 14 13 9 7 5 5 7 11 4 1 10 16 13 14 9 8 4 3 3 4 4 4 2 2 2 2 4
14 14 14 14 14 14 14 14 15 15 15 15 15 16 15 16 17 17 17 16 14 11 7 6 6 6 8 3 2 4 10 13 9 11 7 4 2 6 1 4 3 3 2 2 1 3 1
14 14 14 14 14 15 15 15 15 15 15 15 16 17 17 17 18 18 18 16 12 7 4 6 7 6 7 4 2 7 8 8 7 4 3 1 4 1 4 4 5 5 4 3 5 4 3
14 14 14 14 15 15 15 15 15 15 15 15 15 16 16 17 18 18 17 13 8 5 4 7 7 8 6 6 10 11 11 8 9 6 4 4 6 4 6 11 8 5 6 5 3 6 3
15 15 15 15 15 15 15 15 16 16 16 16 16 16 16 16 18 16 11 6 7 11 7 5 4 7 7 11 12 10 9 9 7 10 9 10 8 11 10 9 6 5 8 6 4 6 9
15 16 16 16 16 16 16 16 16 17 17 18 17 17 17 16 18 16 6 5 7 7 8 8 1 5 6 7 10 12 12 12 8 13 14 14 12 15 16 8 9 8 9 8 5 1 6
16 16 16 17 17 16 17 17 17 17 18 18 18 18 17 17 16 10 7 6 5 7 8 14 12 10 4 4 11 12 11 12 12 14 14 9 18 18 3 7 8 10 9 5 1 1 8
15 16 16 17 17 17 17 18 18 18 18 19 18 18 17 18 15 4 6 5 2 8 8 5 8 11 11 9 10 16 16 18 12 15 14 19 2 10 8 13 11 13 9 8 9 3 10
15 14 14 15 17 17 18 19 19 18 19 19 19 17 15 20 5 2 4 5 6 6 7 11 9 7 10 9 13 9 15 13 11 15 15 14 17 7 10 15 10 12 8 9 9 7 4
14 14 15 16 17 18 19 19 19 20 20 19 19 17 14 6 9 5 6 4 4 6 7 6 7 6 6 18 10 13 16 13 14 13 12 13 9 15 17 13 5 6 4 6 5 8 7
15 16 18 19 20 21 20 20 20 20 21 20 19 17 10 6 5 3 4 5 5 8 5 7 6 9 12 18 8 9 13 11 7 13 13 18 8 6 15 16 11 2 5 3 5 5 11
16 17 17 18 18 20 20 21 21 22 23 22 19 16 6 2 3 1 4 5 8 8 3 5 3 7 14 15 13 11 17 18 11 12 14 16 18 16 8 12 9 12 13 9 8 9 6
16 16 16 17 17 18 20 22 22 23 24 23 20 9 6 3 3 6 7 8 8 3 2 2 2 5 10 13 17 11 16 17 19 13 8 10 15 19 16 17 12 16 15 10 6 8 5
16 16 16 17 20 21 22 23 24 25 25 24 17 4 2 4 3 5 9 10 2 3 4 5 6 7 11 11 6 15 15 18 17 18 12 8 10 9 15 15 18 10 10 13 15 8 9
16 17 17 20 20 21 23 24 25 27 27 21 3 2 6 4 3 7 9 7 0 2 5 3 6 2 6 11 13 11 13 12 18 18 21 8 8 9 14 13 12 15 11 10 11 10 9
16 17 18 19 20 21 22 24 26 28 29 17 5 3 5 6 5 7 7 1 2 1 4 4 3 5 4 4 9 11 12 12 9 13 20 20 13 6 6 17 17 12 14 13 15 5 8
16 16 17 18 19 21 23 24 26 27 31 6 5 2 4 4 5 2 4 2 0 2 2 4 6 8 10 7 10 9 10 11 3 1 9 20 11 14 17 7 12 18 22 21 11 14 12
15 16 17 17 18 20 23 25 26 25 21 7 3 3 2 5 3 3 3 2 3 4 2 3 4 3 1 8 7 12 13 10 8 10 5 8 12 12 13 14 10 12 13 16 17 16 16
15 16 16 17 17 20 22 24 26 27 21 6 4 2 3 3 2 5 3 3 6 2 6 5 7 6 7 10 9 9 10 5 6 9 8 8 17 14 13 16 16 20 19 16 18 12 12
15 16 16 15 17 20 22 24 27 28 24 6 5 5 5 3 4 5 4 2 6 5 2 4 5 2 8 8 9 12 10 11 10 3 8 10 16 14 16 20 11 11 18 17 17 17 16
14 16 16 15 15 18 20 23 25 30 29 4 5 5 1 2 4 7 5 1 7 5 5 8 8 6 10 10 13 13 8 9 7 5 10 9 13 13 14 17 13 15 17 15 17 19 16
13 15 16 14 14 17 19 20 22 26 22 5 4 1 5 3 4 5 3 4 3 5 7 8 8 10 13 8 7 14 15 16 17 15 13 13 10 16 17 17 10 15 17 16 16 15 13
11 13 15 16 13 14 17 18 19 21 19 5 5 5 4 2 4 5 4 6 10 10 12 11 12 13 8 11 17 19 21 21 21 19 15 12 13 13 15 18 21 11 3 4 13 16 19
10 11 12 14 15 11 14 16 16 17 18 5 4 5 5 6 6 7 4 6 10 11 14 16 14 11 10 14 12 15 15 21 24 23 21 18 14 14 15 18 17 20 10 4 8 16 17
9 10 10 12 14 12 13 14 15 15 16 6 5 2 5 6 4 6 8 9 10 10 11 11 7 9 10 9 11 15 12 13 12 11 16 16 13 15 13 20 23 10 13 4 5 9 4
8 8 9 10 11 12 12 13 13 14 13 8 4 6 4 5 3 5 7 9 6 7 8 10 5 6 7 10 12 13 14 16 16 13 15 7 12 18 15 15 15 10 11 3 8 5 9
7 7 8 9 9 10 10 11 11 11 12 9 3 4 5 4 11 11 11 12 11 7 9 9 9 3 7 11 11 8 9 12 15 16 10 8 5 14 22 19 17 4 9 14 6 5 8
6 6 7 8 8 9 9 9 10 9 8 9 3 4 5 6 9 16 16 17 17 12 7 3 7 7 3 5 3 5 6 5 11 11 6 9 8 5 8 5 8 6 7 9 10 6 3
Wind_Direction
19 16 14 13 9 7 3 359 358 356 352 349 345 342 340 337 337 333 330 328 326 320 311 293 285 272 249 219 258 89 172 166 181 204 216 224 244 272 300 343 243 293 34 0 52 177 165
17 14 12 9 7 5 3 360 357 355 351 349 345 341 338 333 330 329 328 324 319 312 301 275 252 245 248 238 74 53 168 171 199 206 211 227 308 354 5 9 313 77 71 49 122 150 178
12 10 8 7 5 3 2 359 356 352 349 347 344 339 334 330 328 325 324 321 313 303 282 247 219 250 253 243 63 139 162 179 193 217 222 211 267 262 243 154 130 140 255 145 130 149 151
9 8 7 5 2 359 357 355 352 347 344 343 340 337 332 331 330 326 322 316 307 287 230 200 200 241 263 107 165 183 175 173 192 208 286 174 218 213 288 129 178 242 241 327 140 189 144
10 7 6 4 0 356 352 349 346 342 341 338 336 332 329 329 330 326 319 306 293 174 165 174 216 246 233 139 206 188 195 178 176 183 161 151 231 248 198 240 212 197 341 13 146 203 158
8 6 4 1 359 353 350 347 344 342 338 334 332 329 328 329 334 331 319 281 132 158 179 213 267 231 205 208 159 166 181 179 168 167 176 212 222 231 228 248 293 340 337 0 339 153 218
5 4 2 359 356 352 348 345 342 339 336 332 329 328 329 330 335 332 277 193 202 178 208 252 133 276 141 115 150 179 174 191 175 195 211 203 231 228 239 236 305 304 298 324 12 57 236
3 2 359 357 354 351 347 343 339 335 332 327 325 326 327 330 329 310 268 260 40 0 282 219 244 254 240 304 174 168 188 204 208 214 211 195 233 245 267 279 272 273 291 328 73 297 240
3 0 357 355 353 349 345 341 336 331 326 323 323 324 325 329 326 218 279 280 36 331 257 181 210 231 214 215 210 187 198 206 213 223 202 234 190 267 224 247 250 256 266 314 319 321 245
4 0 357 354 351 348 343 337 332 327 323 320 319 322 325 325 277 14 220 142 294 283 262 143 188 189 191 214 223 221 206 202 218 238 220 246 251 216 241 240 258 271 27 304 289 255 319
3 0 357 355 354 347 340 333 328 325 321 319 317 319 322 321 327 235 72 306 311 222 260 130 144 112 162 195 113 181 194 211 233 217 211 222 217 227 239 235 209 294 326 302 278 248 291
4 1 360 360 355 351 342 332 329 325 321 320 318 315 314 195 216 296 287 304 219 228 228 137 133 180 178 208 189 133 182 217 256 228 216 255 171 268 249 238 238 264 222 221 212 270 247
3 359 360 354 348 350 340 331 331 328 325 326 325 319 229 285 51 355 280 207 222 253 114 135 149 190 205 181 185 185 187 195 200 205 221 217 237 235 238 204 188 218 234 236 219 204 265
0 356 355 347 343 341 338 338 335 331 329 329 327 305 172 285 295 290 226 212 244 41 285 90 268 248 217 193 209 193 198 208 215 227 280 214 208 212 210 228 214 208 244 264 264 270 247
1 358 355 346 349 345 342 340 338 335 333 334 314 176 153 29 251 227 223 219 341 8 349 324 259 247 192 207 258 206 218 218 209 213 235 199 230 170 211 209 227 188 230 257 285 235 263
1 358 347 351 348 345 342 341 340 337 336 336 277 212 59 27 164 239 229 242 312 324 322 280 277 317 272 199 201 206 207 222 225 209 227 245 265 204 203 217 227 264 260 212 221 268 263
1 355 352 350 348 345 345 343 342 342 336 334 238 208 61 341 248 223 226 112 199 136 316 295 282 270 276 274 257 229 238 214 243 225 218 236 237 237 182 206 212 192 229 237 281 283 280
359 354 352 349 348 348 348 347 346 345 339 299 290 186 41 301 216 273 219 345 358 278 227 276 276 281 276 298 279 255 247 244 46 290 226 224 231 232 232 177 239 252 219 238 229 218 240
355 352 350 348 352 352 351 348 347 349 357 314 359 23 81 283 266 173 140 201 294 280 298 293 276 270 288 280 272 240 256 274 311 256 261 179 219 239 229 215 194 233 231 248 249 249 249
354 349 355 2 1 357 355 351 347 348 349 291 288 225 116 69 356 312 310 245 264 164 279 308 299 267 269 254 236 277 270 262 331 294 17 287 254 231 243 212 205 207 228 224 244 228 230
355 348 355 359 7 359 358 355 351 349 345 290 346 56 12 16 98 328 282 308 272 264 239 271 229 279 321 274 249 252 266 309 277 44 262 251 245 254 245 273 272 231 217 219 224 240 248
353 351 356 1 11 3 2 360 358 351 336 44 355 336 326 337 301 278 150 177 294 314 276 264 264 322 294 274 303 309 323 296 289 338 330 276 260 257 259 247 245 236 239 238 222 241 248
354 354 357 0 10 8 5 4 4 3 344 39 22 62 290 99 309 279 30 3 333 322 264 273 292 293 278 307 318 289 283 279 277 283 294 285 260 240 243 239 231 234 236 229 229 227 237
354 354 359 1 5 13 7 8 10 10 3 352 36 300 302 357 289 329 307 289 283 284 276 286 294 277 266 329 298 272 263 257 253 255 251 257 276 267 252 243 233 243 106 269 256 239 229
352 354 356 358 357 12 11 7 11 10 1 348 10 340 337 301 323 283 277 289 288 270 254 268 278 289 318 286 273 261 251 247 249 250 239 239 246 262 248 235 238 228 198 246 221 233 238
347 350 351 355 359 7 16 6 5 10 2 333 39 324 284 308 77 334 297 293 294 296 282 251 287 285 276 260 250 247 250 262 242 247 227 248 212 251 244 239 230 213 112 126 151 234 308
337 341 344 347 352 357 1 2 2 2 1 331 27 347 294 289 287 300 280 318 315 284 280 291 338 292 236 249 245 248 247 248 252 240 251 218 188 222 246 258 236 129 151 136 209 101 49
324 330 335 336 340 343 345 348 355 1 3 333 47 19 331 282 293 272 278 279 270 254 271 316 289 117 273 247 258 249 257 251 233 254 229 219 306 212 222 248 245 19 218 235 266 79 48
303 314 323 327 335 338 340 338 341 349 2 329 300 17 330 252 288 318 285 275 269 263 270 264 315 303 328 292 303 304 258 285 271 257 168 200 214 318 298 236 344 348 349 17 32 10 79